Location: Jabiru
(12.6667°S, 132.8333°E)
Time: 21:09:27
(UTC+09:30)

Hubble Space Telescope - Visible Passes

Search period start: 23 February 2019 00:00
Search period end: 05 March 2019 00:00
Orbit: 537 x 540 km, 28.5° (Epoch: 22 February)

Date Brightness Start Highest point End Pass type
(mag) Time Alt. Az. Time Alt. Az. Time Alt. Az.
23 Feb 2.5 04:45:45 28° SSE 04:45:46 28° SSE 04:49:21 10° E visible
23 Feb 1.5 20:02:38 10° NW 20:06:25 35° NNE 20:07:31 30° ENE visible
24 Feb 2.7 04:36:37 29° ESE 04:36:37 29° ESE 04:39:12 10° E visible
24 Feb 1.3 06:12:39 10° W 06:16:34 41° NNW 06:20:27 10° NE visible
24 Feb 1.0 19:51:56 10° NW 19:55:56 50° NNE 19:58:25 21° E visible
24 Feb 4.0 21:33:28 10° W 21:33:48 12° W 21:33:48 12° W visible
25 Feb 3.2 04:27:33 20° E 04:27:33 20° E 04:28:57 10° E visible
25 Feb 1.8 06:02:57 13° W 06:06:05 29° NNW 06:09:41 10° NNE visible
25 Feb 0.7 19:41:21 10° NW 19:45:29 71° NNE 19:49:14 12° ESE visible
25 Feb 3.6 21:23:21 10° WSW 21:24:37 16° WSW 21:24:37 16° WSW visible
26 Feb 3.9 04:18:31 11° ENE 04:18:31 11° ENE 04:18:38 10° ENE visible
26 Feb 2.2 05:53:55 17° WNW 05:55:35 21° NNW 05:58:47 10° NNE visible
26 Feb 0.8 19:30:52 10° WNW 19:35:01 82° SSW 19:39:11 10° ESE visible
26 Feb 3.3 21:13:19 10° WSW 21:15:18 18° SW 21:15:18 18° SW visible
27 Feb 2.6 05:44:52 15° NW 05:45:07 15° NNW 05:47:36 10° N visible
27 Feb 1.3 19:20:28 10° WNW 19:24:34 59° SSW 19:28:40 10° SE visible
27 Feb 3.3 21:03:21 10° WSW 21:05:52 17° SSW 21:05:52 17° SSW visible
28 Feb 3.1 05:35:46 10° NNW 05:35:46 10° NNW 05:35:47 10° NNW visible
28 Feb 3.3 20:53:31 10° SW 20:55:47 14° SSW 20:56:19 14° S visible
01 Mar 3.4 20:43:45 10° SW 20:45:28 12° SSW 20:46:39 11° S visible
02 Mar 3.5 20:34:11 10° SSW 20:35:12 11° S 20:36:13 10° S visible
